#timestamp,LO_Frequency,Hit,StdDev 
1591225215.8,286046963.7,N
1591225235.6,286046963.2,N
1591225255.5,286046960.6,N
1591225275.3,286046959.1,N
1591225295.2,286046960.8,N
1591225315.9,286046962.3,N
1591225335.7,286046962.4,N
1591225355.6,286046963.9,N
1591225375.4,286046967.5,N
1591225395.2,286046966.7,N
1591225415.1,286046968.3,N
1591225416.0,286046968.3,N
1591225435.8,286046971.5,N
1591225455.7,286046972.9,N
1591225475.5,286046974.0,N
1591225495.3,286046972.1,N
1591225515.2,286046971.9,N
1591225535.0,286046969.9,N
1591225535.9,286046969.9,Y
1591225555.8,286046999.3,P
1591225575.6,286046995.0,N
1591225595.4,286046995.5,N
1591225615.3,286046995.3,N
1591225635.1,286046991.7,N
1591225655.8,286046994.5,N
1591225675.7,286046991.9,N
1591225695.5,286046993.2,N
1591225715.3,286046986.3,N
1591225735.2,286046993.2,N
1591225755.0,286046991.3,N
1591225755.9,286046991.3,N
1591225775.8,286046990.3,N
1591225795.6,286046990.6,N
1591225815.4,286046992.8,N
1591225835.3,286046992.6,N
1591225855.1,286046995.7,N
1591225905.9,286047000.3,E
1591225915.8,286047002.7,N
1591225935.7,286047004.2,P
1591225955.5,286047002.3,P
1591225975.3,286047002.5,Y
1591225995.2,286047000.6,P
1591226015.0,286047002.8,N
1591226015.9,286047002.8,N
1591226035.8,286047003.3,Y
1591226055.6,286047003.4,P
1591226075.4,286047004.3,P
1591226095.3,286047001.6,N
1591226115.1,286047001.9,N
1591226135.8,286047003.6,Y
1591226155.7,286046999.0,P
1591226175.5,286046996.9,N
1591226195.4,286046997.3,N
1591226215.2,286046995.2,N
1591226235.0,286046992.3,Y
1591226235.9,286046992.3,P
1591226255.8,286046994.7,N
1591226275.6,286046993.4,N
1591226295.4,286046995.3,N
1591226315.3,286046997.6,N
1591226335.1,286046996.7,N
1591226355.9,286047000.6,N
1591226375.7,286047003.1,N
1591226395.5,286047004.6,N
1591226415.4,286047004.5,N
1591226435.2,286047007.4,N
1591226455.0,286047005.4,N
1591226455.9,286047005.4,N
1591226475.8,286047003.2,N
1591226495.6,286047004.2,N
1591226515.5,286047001.6,N
1591226535.3,286047011.9,N
1591226555.1,286047005.9,N
1591226575.9,286047007.6,N
1591226595.7,286047010.0,N
1591226615.5,286047009.4,N
1591226635.4,286047009.4,N
1591226655.2,286047013.8,N
1591226675.1,286047011.7,N
1591226676.0,286047011.7,N
1591226695.8,286047013.9,N
1591226715.6,286047014.3,N
1591226735.5,286047016.0,N
1591226755.3,286047020.4,Y
1591226775.2,286047016.9,P
1591226795.9,286047013.3,N
1591226815.7,286047013.5,N
1591226835.6,286047016.1,Y
1591226855.4,286047005.4,P
1591226875.2,286047009.2,N
1591226895.1,286047006.4,N
1591226896.0,286047006.4,N
1591226915.8,286047007.5,Y
1591226935.7,286046997.6,P
1591226955.5,286046991.8,N
1591226975.3,286046993.7,N
1591226995.2,286046995.7,N
1591227015.0,286046995.9,N
1591227015.9,286046995.9,N
1591227035.8,286046994.1,N
1591227055.6,286046996.1,N
1591227075.4,286046993.5,N
1591227095.3,286046993.5,N
1591227115.1,286046996.0,N
1591227135.8,286046995.6,N
1591227155.7,286046995.6,N
1591227175.5,286046993.6,N
1591227195.4,286046992.4,N
1591227215.2,286046990.3,N
1591227235.0,286046987.2,Y
1591227235.9,286046987.2,P
1591227255.8,286046988.2,N
1591227275.6,286046983.6,P
1591227295.5,286046979.0,Y
1591227345.3,286046985.8,E
1591227355.2,286046994.6,N
1591227375.1,286047002.3,P
1591227376.0,286047011.9,P
1591227395.8,286047000.0,N
1591227415.7,286047001.8,N
1591227435.5,286047006.8,N
1591227455.3,286047009.6,N
1591227475.2,286047014.0,N
1591227495.0,286047015.2,N
1591227495.9,286047015.2,N
1591227515.8,286047017.2,N
1591227535.6,286047017.6,N
1591227555.4,286047020.1,N
1591227575.3,286047020.2,N
1591227595.1,286047017.8,N
1591227615.8,286047017.5,N
1591227635.7,286047020.2,N
1591227655.5,286047023.2,N
1591227675.4,286047024.9,Y
1591227695.2,286047013.3,P
1591227715.0,286047013.7,P
1591227715.9,286047013.7,P
1591227735.8,286047012.1,Y
1591227755.6,286046997.1,P
1591227775.5,286046996.5,N
1591227795.3,286046997.4,N
1591227815.1,286046995.6,N
1591227835.9,286046993.3,N
1591227855.7,286046995.9,N
1591227875.5,286046993.7,N
1591227895.4,286046994.7,N
1591227915.2,286046993.9,N
1591227935.1,286046993.8,N
1591227936.0,286046993.8,N
1591227955.8,286046996.3,N
1591227975.6,286046994.7,N
1591227995.5,286046990.9,N
1591228015.3,286046992.9,N
1591228035.1,286046992.3,N
1591228055.9,286046993.4,N
1591228075.7,286046997.9,N
1591228095.6,286046998.6,N
1591228115.4,286047000.6,N
1591228135.2,286047002.8,N
1591228155.1,286047002.1,N
1591228156.0,286047002.1,N
1591228175.8,286047003.1,N
1591228195.6,286047005.5,N
1591228215.5,286047007.5,N
1591228235.3,286047008.0,N
1591228255.2,286047010.0,N
1591228275.9,286047011.3,N
1591228295.7,286047012.9,N
1591228315.6,286047014.4,N
1591228335.4,286047018.7,N
1591228355.2,286047020.4,N
1591228375.1,286047020.1,N
1591228376.0,286047020.1,N
1591228395.8,286047019.2,N
1591228415.7,286047017.7,N
1591228435.5,286047015.8,N
1591228455.3,286047014.3,N
1591228475.2,286047011.0,N
1591228495.9,286047007.8,N
1591228515.7,286047005.8,N
1591228535.7,286046998.5,N
1591228555.5,286046998.9,N
1591228575.3,286046997.5,N
1591228595.2,286046994.7,N
1591228615.0,286046989.0,N
1591228615.9,286046989.0,N
1591228635.8,286046987.7,N
1591228655.6,286046989.5,N
1591228675.4,286046985.6,N
1591228695.3,286046984.4,N
1591228715.1,286046986.6,N
1591228735.9,286046989.6,N
1591228755.7,286046991.5,N
1591228775.5,286046992.6,N
1591228795.4,286046993.7,N
